Regional Weather Roundup
Issued by NWS

Home | Current Version | Previous Version | Graphics & Text | Print | Product List | Glossary On
Versions: 1 2 3 4 5 6 7 8 9 10 11 12 13 14 15 16 17 18 19 20 21 22 23 24 25 26 27 28 29 30 31 32 33 34 35 36 37 38 39 40 41 42 43 44 45 46 47 48 49 50
000
ASUS44 KMEG 201610
RWRTN
TENNESSEE HOURLY STATE WEATHER ROUNDUP
NATIONAL WEATHER SERVICE MEMPHIS TN
1000 AM CST SAT JAN 20 2018

TNZ002-004-019-021-049-052-054-088>092-201700-
WEST TENNESSEE

CITY           SKY/WX    TMP DP  RH WIND       PRES   REMARKS
MEMPHIS INTL   PTSUNNY   53  34  48 S13G23    30.19S
JACKSON        PTSUNNY   50  27  40 S8        30.21S
DYERSBURG      CLOUDY    44  26  49 SE6       30.20R
SOMERVILLE     MOSUNNY   54  32  43 S12       30.19S
COVINGTON      CLOUDY    48  28  46 VRB6      30.19F
UNION CITY     CLOUDY    43  27  52 S7        30.19S
BOLIVAR        PTSUNNY   54  28  37 S9        30.21R
PARIS          CLOUDY    43  25  49 S7        30.20R
HUNTINGDON     CLOUDY    46  27  46 S5        30.20R
LEXINGTON      SUNNY     52  25  35 SW8G15    30.23R
SELMER         SUNNY     52  25  35 S8        30.22S
SAVANNAH       MOSUNNY   52  27  37 S9        30.24R
$$

TNZ008-025-027-028-033-062-065-066-201700-
NORTH MIDDLE TENNESSEE

CITY           SKY/WX    TMP DP  RH WIND       PRES   REMARKS
NASHVILLE      PTSUNNY   55  23  28 W5        30.25R
PORTLAND       CLOUDY    46  28  49 S9        30.22S
CLARKSVILLE    CLOUDY    46  21  37 SW7       30.22R
SMYRNA         FAIR      54  27  35 S3        30.26S
COOKEVILLE     CLOUDY    52  30  43 S7        30.26S
GALLATIN       CLOUDY    50  27  40 SW7G14    30.27S
CROSSVILLE     CLOUDY    45  27  49 VRB5      30.26S
$$

TNZ061-075-076-078-094-096-097-201700-
SOUTH MIDDLE TENNESSEE

CITY           SKY/WX    TMP DP  RH WIND       PRES   REMARKS
FAYETTEVILLE   CLOUDY    50  27  40 SW8       30.27R
TULLAHOMA      CLOUDY    50  25  37 SW7       30.26S
WINCHESTER     CLOUDY    52  27  37 SW5       30.28S
MCMINNVILLE    SUNNY     54  27  35 SW6G14    30.26S
COLUMBIA       CLOUDY    52  23  32 S9        30.23S
SHELBYVILLE    CLOUDY    52  25  35 SW7       30.26S
$$

TNZ017-018-042-046-047-201700-
NORTHEAST TENNESSEE

CITY           SKY/WX    TMP DP  RH WIND       PRES   REMARKS
TRI CITIES     CLOUDY    37  26  64 CALM      30.28S
ELIZABETHTON   CLOUDY    39  30  70 CALM      30.28F
$$

TNZ012-013-036-069-073-074-201700-
CENTRAL EAST TENNESSEE

CITY           SKY/WX    TMP DP  RH WIND       PRES   REMARKS
KNOXVILLE      CLOUDY    42  21  43 CALM      30.29R
OAK RIDGE      CLOUDY    44  22  41 VRB3      30.30R
DOWNTOWN KNOXV CLOUDY    39  25  56 CALM      30.31R
GATLINBURG     CLOUDY    39  28  65 CALM      30.30R
MORRISTOWN     CLOUDY    39  23  52 CALM      30.28S
JACKSBORO      CLOUDY    39  25  56 CALM      30.32R
$$

TNZ083-085-099-201700-
SOUTHEAST TENNESSEE

CITY           SKY/WX    TMP DP  RH WIND       PRES   REMARKS
CHATTANOOGA    FAIR      46  20  35 NE3       30.30R
DAYTON         CLOUDY    43  23  45 CALM      30.30R
$$

SKY/WX REPORTED AS FAIR MEANS FEW OR NO CLOUDS BELOW
12 THOUSAND FEET.





USA.gov is the U.S. government's official web portal to all federal, state and local government web resources and services.